Location: Risskov
(56.1972°N, 10.2480°E)
Time: 13:24:14
(UTC+00:00)

Meteor 2-6 Rocket - Pass Details

Date: 05 July 2020
Orbit: 804 x 916 km, 81.3° (Epoch: 07 August)

Event Time Altitude Azimuth Distance (km) Brightness Sun altitude
Rises 23:24:49 0° 345° (NNW) 3,411 9.1 -11.1°
Reaches altitude 10° 23:27:17 10° 347° (NNW) 2,457 8.0 -11.1°
Maximum altitude 23:32:50 77° 74° (ENE) 845 4.3 -11.1°
Enters shadow 23:37:49 12° 160° (SSE) 2,232 5.8 -11.1°
